El Hierro > ESTACION METEOROLÓGICA Mirador de Jinama

DATOS ACTUALES Online

Ultima actulizacion 20 minutos

15.9 ºC

Temperatura

98

Humedad (%)

879.3

Presión (mb)

0.1

Precipitación (mm)

33.5 W

Viento (Km/h)

DATOS DIARIOS

Temperatura últimas 24 horas (ºC)

Humedad últimas 24 horas (%)

Presión atmosférica últimas 24 horas (mb)

Precipitaciones últimas 23 horas (mm)

Viento últimas 24 horas (Km/h)

Hora Temperatura (°C) ºC Precipitación (mm) mm Presión (mb) mb Humedad (%) % Viento (Km/h) km/h
24 - 23:00 13.2 0 883 96 25.9 SW
25 - 00:00 13.6 0 882 97 35.6 W
25 - 01:00 14.3 0 881 97 50.8 NW
25 - 02:00 13.9 0 881 97 49 W
25 - 03:00 14 0 881 97 33.5 NW
25 - 04:00 13.7 0 880 97 45.4 W
25 - 05:00 14.9 0 880 97 49.7 W
25 - 06:00 14.6 0 880 97 36 W
25 - 07:00 14.7 0 881 97 8.3 W
25 - 08:00 15.1 0 881 97 3.6 W
25 - 09:00 15.8 0 882 97 9.4 N
25 - 10:00 16 0 882 98 15.8 N
25 - 11:00 15.8 0 882 97 2.2 NO
25 - 12:00 16.1 0 882 98 4.3 O
25 - 13:00 16 0 881 98 2.5 NW
25 - 14:00 16.2 0 881 97 3.2 NW
25 - 15:00 16.4 0 880 98 8.6 O
25 - 16:00 16.4 0 880 98 7.9 N
25 - 17:00 16.1 0.1 880 98 15.1 NW
25 - 18:00 15.7 0.1 880 98 6.5 NW
25 - 19:00 15.5 0.1 880 97 23.4 W
25 - 20:00 15.8 0.1 880 98 28.8 SW
25 - 21:00 16.1 0.1 880 98 36.7 W
25 - 22:00 15.9 0.1 879 98 33.5 W
25 - 23:00
Apalmet utiliza cookies propias y de terceros para mejorar la usabilidad y la experiencia web. Política de cookies.